This demonstration page uses our WeatherBlox Daily Observations layout. Learn more.

Left ArrowRight Arrow

39.08367, -84.50855

Hourly Observations for March 25, 2015

Temp ( °F °C ) Dew Point ( °F °C ) Humidity (%) Winds ( mph kmh ) Pressure ( in mb ) Visibility ( mi km ) Precip ( " mm )
12:53 am 00:53 Cloudy with Light Rain 43 6.1 40 4.4 89 89 NNE 3 6 30.10 1019 9 14 0.01 0.25
1:53 am 01:53 Mostly Cloudy 42 5.6 40 4.4 92 92 SSW 5 7 30.06 1018 10 16 0.03 0.76
2:53 am 02:53 Mostly Clear 41 5 40 4.4 96 96 N N/A 30.03 1017 9 14 N/A
3:53 am 03:53 Mostly Cloudy with Mist and Fog 41 5 41 5 100 100 N N/A 30.00 1016 4 6 N/A
4:53 am 04:53 Mostly Cloudy with Light Rain 44 6.7 41 5 89 89 WSW 3 6 29.98 1015 9 14 0.02 0.51
5:53 am 05:53 Mostly Cloudy 46 7.8 42 5.6 86 86 SSW 6 9 29.96 1014 10 16 N/A
6:16 am 06:16 Cloudy with Nearby Thunderstorms 48 9 43 6 82 82 SSW 8 13 29.94 1014 10 16 N/A
6:39 am 06:39 Cloudy with Rain 47 8.3 44 6.7 90 90 SW 5 7 29.94 1014 4 6 0.04 1.02
6:53 am 06:53 Cloudy with Light Rain 47 8.3 45 7.2 93 93 S 5 7 29.94 1014 5 8 0.08 2.03
7:53 am 07:53 Partly Cloudy 45 7.2 44 6.7 97 97 SW 5 7 29.96 1014 10 16 N/A
10:53 am 10:53 Mostly Cloudy 63 17.2 54 12.2 73 73 SW 21 33 29.98 1015 10 16 N/A
11:53 am 11:53 Mostly Cloudy 65 18.3 53 11.7 66 66 SW 17 28 29.99 1016 10 16 N/A
12:53 pm 12:53 Mostly Cloudy 68 20 52 11.1 57 57 SW 22 35 29.99 1016 10 16 N/A
1:53 pm 13:53 Mostly Cloudy 67 19.4 51 10.6 57 57 W 15 24 30.00 1016 10 16 N/A
2:53 pm 14:53 Partly Cloudy 68 20 53 11.7 59 59 W 15 24 30.00 1016 10 16 N/A
3:53 pm 15:53 Sunny 69 20.6 53 11.7 57 57 W 15 24 30.01 1016 10 16 N/A
4:53 pm 16:53 Mostly Sunny 66 18.9 51 10.6 59 59 WNW 12 19 30.02 1017 10 16 N/A
5:53 pm 17:53 Sunny 66 18.9 50 10 56 56 W 12 19 30.03 1017 10 16 N/A
6:53 pm 18:53 Sunny 60 15.6 46 7.8 60 60 WNW 9 15 30.03 1017 10 16 N/A
7:53 pm 19:53 Sunny 61 16.1 45 7.2 56 56 NNW 6 9 30.04 1017 10 16 N/A
8:53 pm 20:53 Clear 56 13.3 46 7.8 70 70 N N/A 30.03 1017 10 16 N/A
9:53 pm 21:53 Clear 53 11.7 46 7.8 77 77 NNE 3 6 30.02 1017 10 16 N/A
10:53 pm 22:53 Mostly Clear 48 8.9 46 7.8 93 93 N N/A 30.01 1016 9 14 N/A
11:53 pm 23:53 Partly Cloudy 48 8.9 46 7.8 93 93 ENE 3 6 29.99 1016 10 16 N/A

Powered by AerisWeather